{"data":{"norad_id":58176,"intl_designator":"2023-167B","name":"STARLINK-30824","alt_names":[],"object_type":"PAYLOAD","status":"ACTIVE","operator":null,"country":"US","launch_date":"2023-10-30","launch_site_code":"AFETR","launch_vehicle":null,"mission":null,"orbit_class":"UNKNOWN","rcs_meters":null,"size_class":null,"mass_kg":null,"dimensions":null,"purposes":["comms"],"wikipedia_slug":null,"has_3d_model":false,"image_url":null,"decayed_at":null,"tle_current":{"epoch":"2026-05-25T04:39:09.947232Z","epoch_age_seconds":61804,"freshness":"FRESH","line1":"1 58176U 23167B   26145.19386513  .00001010  00000+0  46218-4 0  9996","line2":"2 58176  43.0035  71.5051 0001247 247.1426 112.9294 15.27584498142685","mean_motion":15.27584498,"eccentricity":0.0001247,"inclination_deg":43.0035,"raan_deg":71.5051,"arg_perigee_deg":247.1426,"mean_anomaly_deg":112.9294,"bstar":4.6218e-5,"rev_number":14268,"period_min":94.266471143516,"perigee_km":482.18003921591,"apogee_km":483.8912156692,"semimajor_km":6861.1726274426,"source":"CELESTRAK","updated_at":"2026-05-25T13:38:18.567347Z"}}}